| time (UTC) | temp F | wind direction | speed MPH | gust MPH | rain 1hr in | rain 24hr in | rain mn in | humidity % | barometer mb |
| 20260508025820 | 53 | 0 | 0.0 | 10.0 | 0.00 | 0.00 | 0.00 | 83 | 1016.5 |
| 20260508025656 | 53 | 298 | 5.0 | 10.0 | 0.00 | 0.00 | 0.00 | 83 | 1016.7 |
| 20260508025306 | 53 | 0 | 0.0 | 8.0 | 0.00 | 0.00 | 0.00 | 83 | 1016.5 |
| 20260508024746 | 53 | 320 | 5.0 | 8.0 | 0.00 | 0.00 | 0.00 | 83 | 1016.4 |
| 20260508024642 | 53 | 320 | 7.0 | 8.0 | 0.00 | 0.00 | 0.00 | 83 | 1016.4 |
| 20260508024229 | 53 | 32 | 4.0 | 8.0 | 0.00 | 0.00 | 0.00 | 83 | 1016.5 |
| 20260508024135 | 54 | 32 | 7.0 | 8.0 | 0.00 | 0.00 | 0.00 | 83 | 1016.4 |
| 20260508023712 | 54 | 12 | 4.0 | 7.0 | 0.00 | 0.00 | 0.00 | 82 | 1016.8 |
| 20260508023628 | 54 | 12 | 5.0 | 7.0 | 0.00 | 0.00 | 0.00 | 82 | 1016.8 |
| 20260508023155 | 54 | 341 | 3.0 | 7.0 | 0.00 | 0.00 | 0.00 | 82 | 1016.8 |
| 20260508023121 | 54 | 341 | 3.0 | 7.0 | 0.00 | 0.00 | 0.00 | 82 | 1016.7 |
| 20260508022638 | 54 | 357 | 4.0 | 7.0 | 0.00 | 0.00 | 0.00 | 81 | 1016.8 |
| 20260508022614 | 54 | 357 | 3.0 | 7.0 | 0.00 | 0.00 | 0.00 | 81 | 1016.8 |
| 20260508022122 | 54 | 299 | 8.0 | 13.0 | 0.00 | 0.00 | 0.00 | 81 | 1016.7 |
| 20260508022107 | 54 | 326 | 8.0 | 13.0 | 0.00 | 0.00 | 0.00 | 81 | 1016.7 |
| 20260508021601 | 54 | 324 | 7.0 | 13.0 | 0.00 | 0.00 | 0.00 | 81 | 1016.7 |
| 20260508021053 | 54 | 326 | 9.0 | 13.0 | 0.00 | 0.00 | 0.00 | 80 | 1016.7 |
| 20260508021047 | 54 | 326 | 5.0 | 13.0 | 0.00 | 0.00 | 0.00 | 80 | 1016.7 |
| 20260508020546 | 54 | 313 | 10.0 | 13.0 | 0.00 | 0.00 | 0.00 | 80 | 1016.7 |
| 20260508020530 | 54 | 313 | 9.0 | 13.0 | 0.00 | 0.00 | 0.00 | 80 | 1016.7 |
| 20260508015532 | 54 | 317 | 6.0 | 9.0 | 0.00 | 0.00 | 0.00 | 79 | 1016.8 |
| 20260508015456 | 54 | 317 | 5.0 | 9.0 | 0.00 | 0.00 | 0.00 | 79 | 1016.7 |
| 20260508015025 | 55 | 343 | 7.0 | 13.0 | 0.00 | 0.00 | 0.00 | 78 | 1016.8 |
| 20260508014939 | 55 | 343 | 8.0 | 13.0 | 0.00 | 0.00 | 0.00 | 78 | 1016.8 |
| 20260508014518 | 55 | 4 | 7.0 | 13.0 | 0.00 | 0.00 | 0.00 | 78 | 1016.9 |
| 20260508014422 | 55 | 4 | 7.0 | 13.0 | 0.00 | 0.00 | 0.00 | 77 | 1016.8 |
| 20260508014011 | 55 | 357 | 8.0 | 13.0 | 0.00 | 0.00 | 0.00 | 78 | 1016.8 |
| 20260508013905 | 55 | 40 | 7.0 | 13.0 | 0.00 | 0.00 | 0.00 | 78 | 1016.8 |
| 20260508013504 | 55 | 344 | 7.0 | 13.0 | 0.00 | 0.00 | 0.00 | 77 | 1016.7 |
| 20260508013348 | 55 | 344 | 5.0 | 13.0 | 0.00 | 0.00 | 0.00 | 77 | 1016.9 |
| 20260508012957 | 55 | 305 | 7.0 | 13.0 | 0.00 | 0.00 | 0.00 | 76 | 1016.8 |
| 20260508012831 | 56 | 294 | 6.0 | 13.0 | 0.00 | 0.00 | 0.00 | 76 | 1016.9 |
| 20260508012450 | 56 | 0 | 11.0 | 13.0 | 0.00 | 0.00 | 0.00 | 76 | 1016.9 |
| 20260508012314 | 56 | 4 | 1.0 | 13.0 | 0.00 | 0.00 | 0.00 | 75 | 1017.0 |
| 20260508011943 | 56 | 15 | 5.0 | 13.0 | 0.00 | 0.00 | 0.00 | 75 | 1017.0 |
| 20260508011757 | 56 | 347 | 5.0 | 13.0 | 0.00 | 0.00 | 0.00 | 74 | 1017.0 |
| 20260508011436 | 57 | 327 | 9.0 | 13.0 | 0.00 | 0.00 | 0.00 | 73 | 1017.0 |
| 20260508011240 | 57 | 305 | 6.0 | 11.0 | 0.00 | 0.00 | 0.00 | 73 | 1017.0 |
| 20260508010929 | 57 | 9 | 7.0 | 11.0 | 0.00 | 0.00 | 0.00 | 72 | 1017.0 |
| 20260508010723 | 58 | 306 | 8.0 | 10.0 | 0.00 | 0.00 | 0.00 | 72 | 1017.1 |
| 20260508010422 | 58 | 306 | 5.0 | 10.0 | 0.00 | 0.00 | 0.00 | 72 | 1017.1 |
| 20260508010206 | 58 | 357 | 5.0 | 10.0 | 0.00 | 0.00 | 0.00 | 71 | 1017.1 |
| 20260508005916 | 58 | 330 | 7.0 | 10.0 | 0.00 | 0.00 | 0.00 | 70 | 1017.1 |
| 20260508005408 | 59 | 288 | 6.0 | 10.0 | 0.00 | 0.00 | 0.00 | 68 | 1017.1 |
| 20260508005132 | 60 | 333 | 7.0 | 10.0 | 0.00 | 0.00 | 0.00 | 68 | 1016.9 |
| 20260508004901 | 60 | 340 | 8.0 | 11.0 | 0.00 | 0.00 | 0.00 | 68 | 1017.0 |
| 20260508004615 | 61 | 4 | 5.0 | 11.0 | 0.00 | 0.00 | 0.00 | 68 | 1017.0 |
| 20260508004354 | 61 | 4 | 5.0 | 11.0 | 0.00 | 0.00 | 0.00 | 68 | 1016.9 |
| 20260508004058 | 61 | 340 | 5.0 | 11.0 | 0.00 | 0.00 | 0.00 | 68 | 1017.1 |
| 20260508003847 | 60 | 7 | 7.0 | 11.0 | 0.00 | 0.00 | 0.00 | 69 | 1017.1 |
| 20260508003541 | 60 | 326 | 6.0 | 11.0 | 0.00 | 0.00 | 0.00 | 68 | 1017.1 |
| 20260508003340 | 60 | 303 | 6.0 | 11.0 | 0.00 | 0.00 | 0.00 | 68 | 1017.2 |
| 20260508003025 | 60 | 8 | 5.0 | 9.0 | 0.00 | 0.00 | 0.00 | 69 | 1017.3 |
| 20260508002833 | 60 | 50 | 7.0 | 9.0 | 0.00 | 0.00 | 0.00 | 69 | 1017.3 |
| 20260508002507 | 60 | 350 | 4.0 | 8.0 | 0.00 | 0.00 | 0.00 | 69 | 1017.3 |
| 20260508002326 | 60 | 337 | 5.0 | 13.0 | 0.00 | 0.00 | 0.00 | 69 | 1017.4 |
| 20260508001950 | 60 | 292 | 8.0 | 13.0 | 0.00 | 0.00 | 0.00 | 69 | 1017.4 |
| 20260508001819 | 60 | 46 | 4.0 | 13.0 | 0.00 | 0.00 | 0.00 | 69 | 1017.4 |
| 20260508001433 | 60 | 337 | 7.0 | 13.0 | 0.00 | 0.00 | 0.00 | 68 | 1017.4 |
| 20260508001312 | 60 | 337 | 7.0 | 13.0 | 0.00 | 0.00 | 0.00 | 68 | 1017.4 |
| 20260508000916 | 60 | 301 | 7.0 | 13.0 | 0.00 | 0.00 | 0.00 | 68 | 1017.5 |
| 20260508000808 | 60 | 298 | 5.0 | 13.0 | 0.00 | 0.00 | 0.00 | 68 | 1017.5 |
| 20260508000359 | 60 | 295 | 8.0 | 10.0 | 0.00 | 0.00 | 0.00 | 68 | 1017.5 |
| 20260508000258 | 60 | 295 | 9.0 | 10.0 | 0.00 | 0.00 | 0.00 | 68 | 1017.5 |
| 20260507235842 | 60 | 351 | 6.0 | 13.0 | 0.00 | 0.00 | 0.00 | 68 | 1017.6 |
| 20260507235751 | 60 | 305 | 5.0 | 13.0 | 0.00 | 0.00 | 0.00 | 68 | 1017.5 |
| 20260507235325 | 60 | 305 | 9.0 | 13.0 | 0.00 | 0.00 | 0.00 | 67 | 1017.5 |
| 20260507234808 | 60 | 313 | 10.0 | 13.0 | 0.00 | 0.00 | 0.00 | 67 | 1017.6 |
| 20260507234737 | 60 | 315 | 8.0 | 13.0 | 0.00 | 0.00 | 0.00 | 67 | 1017.6 |
| 20260507234251 | 60 | 317 | 6.0 | 12.0 | 0.00 | 0.00 | 0.00 | 67 | 1017.7 |
| 20260507234230 | 60 | 317 | 8.0 | 12.0 | 0.00 | 0.00 | 0.00 | 67 | 1017.7 |
| 20260507233734 | 60 | 322 | 9.0 | 12.0 | 0.00 | 0.00 | 0.00 | 68 | 1017.6 |
| 20260507233723 | 60 | 322 | 8.0 | 12.0 | 0.00 | 0.00 | 0.00 | 67 | 1017.6 |
| 20260507233217 | 61 | 330 | 9.0 | 12.0 | 0.00 | 0.00 | 0.00 | 67 | 1017.5 |
| 20260507232700 | 61 | 285 | 5.0 | 13.0 | 0.00 | 0.00 | 0.00 | 67 | 1017.5 |
| 20260507232202 | 61 | 323 | 9.0 | 13.0 | 0.00 | 0.00 | 0.00 | 66 | 1017.5 |
| 20260507232143 | 61 | 323 | 10.0 | 13.0 | 0.00 | 0.00 | 0.00 | 67 | 1017.5 |
| 20260507231655 | 61 | 348 | 8.0 | 13.0 | 0.00 | 0.00 | 0.00 | 65 | 1017.7 |
| 20260507231626 | 62 | 348 | 9.0 | 13.0 | 0.00 | 0.00 | 0.00 | 65 | 1017.7 |
| 20260507231148 | 62 | 306 | 7.0 | 13.0 | 0.00 | 0.00 | 0.00 | 66 | 1017.8 |
| 20260507231109 | 62 | 306 | 8.0 | 13.0 | 0.00 | 0.00 | 0.00 | 66 | 1017.8 |
| 20260507230641 | 62 | 317 | 9.0 | 11.0 | 0.00 | 0.00 | 0.00 | 66 | 1017.8 |
| 20260507230552 | 62 | 317 | 5.0 | 11.0 | 0.00 | 0.00 | 0.00 | 65 | 1017.8 |
| 20260507230134 | 62 | 320 | 6.0 | 14.0 | 0.00 | 0.00 | 0.00 | 65 | 1017.7 |
| 20260507225627 | 62 | 327 | 9.0 | 14.0 | 0.00 | 0.00 | 0.00 | 66 | 1017.6 |
| 20260507225518 | 62 | 23 | 5.0 | 14.0 | 0.00 | 0.00 | 0.00 | 66 | 1017.7 |
| 20260507225122 | 62 | 2 | 4.0 | 14.0 | 0.00 | 0.00 | 0.00 | 66 | 1017.7 |
| 20260507225001 | 62 | 14 | 5.0 | 14.0 | 0.00 | 0.00 | 0.00 | 66 | 1017.7 |
| 20260507224613 | 62 | 302 | 9.0 | 14.0 | 0.00 | 0.00 | 0.00 | 66 | 1017.8 |
| 20260507224444 | 62 | 357 | 4.0 | 11.0 | 0.00 | 0.00 | 0.00 | 67 | 1017.8 |
| 20260507224106 | 62 | 323 | 9.0 | 11.0 | 0.00 | 0.00 | 0.00 | 65 | 1017.9 |
| 20260507223927 | 62 | 323 | 8.0 | 11.0 | 0.00 | 0.00 | 0.00 | 66 | 1017.9 |
| 20260507223559 | 62 | 295 | 8.0 | 8.0 | 0.00 | 0.00 | 0.00 | 67 | 1018.0 |
| 20260507223410 | 62 | 326 | 7.0 | 14.0 | 0.00 | 0.00 | 0.00 | 66 | 1018.0 |
| 20260507223052 | 62 | 357 | 9.0 | 14.0 | 0.00 | 0.00 | 0.00 | 68 | 1017.9 |
| 20260507222853 | 62 | 357 | 7.0 | 14.0 | 0.00 | 0.00 | 0.00 | 67 | 1017.8 |
| 20260507222545 | 62 | 18 | 5.0 | 14.0 | 0.00 | 0.00 | 0.00 | 67 | 1018.0 |
| 20260507222336 | 62 | 18 | 7.0 | 14.0 | 0.00 | 0.00 | 0.00 | 67 | 1018.0 |
| 20260507222038 | 61 | 21 | 7.0 | 14.0 | 0.00 | 0.00 | 0.00 | 68 | 1018.1 |
| 20260507221819 | 61 | 294 | 6.0 | 14.0 | 0.00 | 0.00 | 0.00 | 67 | 1018.2 |
| 20260507221531 | 61 | 329 | 9.0 | 11.0 | 0.00 | 0.00 | 0.00 | 67 | 1018.1 |
| 20260507221302 | 61 | 8 | 5.0 | 11.0 | 0.00 | 0.00 | 0.00 | 67 | 1018.2 |
| 20260507221024 | 62 | 319 | 8.0 | 11.0 | 0.00 | 0.00 | 0.00 | 67 | 1018.2 |
| 20260507220745 | 62 | 313 | 8.0 | 11.0 | 0.00 | 0.00 | 0.00 | 67 | 1018.2 |
| 20260507220517 | 62 | 313 | 7.0 | 11.0 | 0.00 | 0.00 | 0.00 | 68 | 1018.3 |
| 20260507220228 | 61 | 312 | 9.0 | 11.0 | 0.00 | 0.00 | 0.00 | 68 | 1018.4 |
| 20260507220010 | 61 | 340 | 5.0 | 11.0 | 0.00 | 0.00 | 0.00 | 68 | 1018.5 |
| 20260507215711 | 61 | 327 | 9.0 | 18.0 | 0.00 | 0.00 | 0.00 | 68 | 1018.4 |
| 20260507215503 | 61 | 322 | 9.0 | 18.0 | 0.00 | 0.00 | 0.00 | 68 | 1018.3 |
| 20260507215154 | 61 | 18 | 10.0 | 18.0 | 0.00 | 0.00 | 0.00 | 66 | 1018.4 |
| 20260507214956 | 62 | 18 | 8.0 | 18.0 | 0.00 | 0.00 | 0.00 | 67 | 1018.5 |
| 20260507214637 | 62 | 316 | 9.0 | 18.0 | 0.00 | 0.00 | 0.00 | 68 | 1018.5 |
| 20260507214449 | 62 | 306 | 6.0 | 18.0 | 0.00 | 0.00 | 0.00 | 67 | 1018.5 |
| 20260507214120 | 62 | 303 | 11.0 | 18.0 | 0.00 | 0.00 | 0.00 | 67 | 1018.6 |
| 20260507213942 | 62 | 306 | 7.0 | 12.0 | 0.00 | 0.00 | 0.00 | 66 | 1018.6 |
| 20260507213603 | 62 | 319 | 9.0 | 12.0 | 0.00 | 0.00 | 0.00 | 67 | 1018.6 |
| 20260507213435 | 62 | 319 | 11.0 | 12.0 | 0.00 | 0.00 | 0.00 | 67 | 1018.6 |
| 20260507213046 | 62 | 316 | 8.0 | 12.0 | 0.00 | 0.00 | 0.00 | 67 | 1018.5 |
| 20260507212928 | 62 | 316 | 9.0 | 12.0 | 0.00 | 0.00 | 0.00 | 67 | 1018.5 |
| 20260507212529 | 62 | 285 | 9.0 | 14.0 | 0.00 | 0.00 | 0.00 | 67 | 1018.5 |
| 20260507212421 | 62 | 312 | 8.0 | 14.0 | 0.00 | 0.00 | 0.00 | 68 | 1018.5 |
| 20260507212012 | 61 | 32 | 8.0 | 14.0 | 0.00 | 0.00 | 0.00 | 68 | 1018.6 |
| 20260507211914 | 61 | 32 | 8.0 | 14.0 | 0.00 | 0.00 | 0.00 | 67 | 1018.5 |
| 20260507211455 | 61 | 331 | 9.0 | 14.0 | 0.00 | 0.00 | 0.00 | 67 | 1018.6 |
| 20260507211407 | 61 | 330 | 6.0 | 14.0 | 0.00 | 0.00 | 0.00 | 67 | 1018.6 |
| 20260507210938 | 62 | 308 | 13.0 | 14.0 | 0.00 | 0.00 | 0.00 | 66 | 1018.6 |
| 20260507210900 | 62 | 308 | 13.0 | 14.0 | 0.00 | 0.00 | 0.00 | 66 | 1018.5 |
| 20260507210421 | 62 | 310 | 7.0 | 13.0 | 0.00 | 0.00 | 0.00 | 67 | 1018.3 |
| 20260507210353 | 62 | 310 | 8.0 | 13.0 | 0.00 | 0.00 | 0.00 | 67 | 1018.3 |
| 20260507205904 | 62 | 315 | 9.0 | 13.0 | 0.00 | 0.00 | 0.00 | 67 | 1018.4 |
| 20260507205846 | 62 | 315 | 8.0 | 13.0 | 0.00 | 0.00 | 0.00 | 67 | 1018.4 |
| 20260507205339 | 62 | 5 | 4.0 | 13.0 | 0.00 | 0.00 | 0.00 | 68 | 1018.3 |
| 20260507204830 | 61 | 0 | 0.0 | 12.0 | 0.00 | 0.00 | 0.00 | 69 | 1018.3 |
| 20260507204325 | 61 | 331 | 5.0 | 11.0 | 0.00 | 0.00 | 0.00 | 68 | 1018.4 |
| 20260507204313 | 61 | 331 | 6.0 | 11.0 | 0.00 | 0.00 | 0.00 | 68 | 1018.4 |
| 20260507203818 | 61 | 273 | 5.0 | 11.0 | 0.00 | 0.00 | 0.00 | 68 | 1018.5 |
| 20260507203756 | 61 | 26 | 7.0 | 11.0 | 0.00 | 0.00 | 0.00 | 68 | 1018.5 |
| 20260507203311 | 61 | 295 | 5.0 | 11.0 | 0.00 | 0.00 | 0.00 | 68 | 1018.4 |
| 20260507203239 | 61 | 292 | 8.0 | 11.0 | 0.00 | 0.00 | 0.00 | 68 | 1018.4 |
| 20260507202804 | 61 | 330 | 8.0 | 14.0 | 0.00 | 0.00 | 0.00 | 68 | 1018.4 |
| 20260507202722 | 61 | 322 | 9.0 | 14.0 | 0.00 | 0.00 | 0.00 | 68 | 1018.4 |
| 20260507202257 | 61 | 0 | 4.0 | 14.0 | 0.00 | 0.00 | 0.00 | 68 | 1018.5 |
| 20260507202205 | 61 | 309 | 8.0 | 14.0 | 0.00 | 0.00 | 0.00 | 68 | 1018.5 |
| 20260507201750 | 61 | 338 | 8.0 | 14.0 | 0.00 | 0.00 | 0.00 | 68 | 1018.5 |
| 20260507201648 | 61 | 338 | 12.0 | 14.0 | 0.00 | 0.00 | 0.00 | 69 | 1018.6 |
| 20260507201243 | 61 | 299 | 7.0 | 13.0 | 0.00 | 0.00 | 0.00 | 69 | 1018.6 |
| 20260507201131 | 60 | 299 | 7.0 | 13.0 | 0.00 | 0.00 | 0.00 | 69 | 1018.6 |
| 20260507200736 | 60 | 267 | 11.0 | 13.0 | 0.00 | 0.00 | 0.00 | 69 | 1018.7 |
| 20260507200614 | 60 | 267 | 8.0 | 13.0 | 0.00 | 0.00 | 0.00 | 69 | 1018.7 |
| 20260507200229 | 61 | 281 | 8.0 | 12.0 | 0.00 | 0.00 | 0.00 | 70 | 1018.6 |
| 20260507200057 | 60 | 281 | 8.0 | 12.0 | 0.00 | 0.00 | 0.00 | 69 | 1018.7 |
| 20260507195722 | 60 | 305 | 10.0 | 12.0 | 0.00 | 0.00 | 0.00 | 69 | 1018.7 |
| 20260507195540 | 60 | 305 | 8.0 | 12.0 | 0.00 | 0.00 | 0.00 | 69 | 1018.8 |
| 20260507195215 | 60 | 315 | 6.0 | 12.0 | 0.00 | 0.00 | 0.00 | 69 | 1018.8 |
| 20260507195023 | 60 | 294 | 9.0 | 13.0 | 0.00 | 0.00 | 0.00 | 68 | 1018.8 |
| 20260507194708 | 61 | 326 | 6.0 | 13.0 | 0.00 | 0.00 | 0.00 | 69 | 1018.9 |
| 20260507194506 | 61 | 326 | 7.0 | 13.0 | 0.00 | 0.00 | 0.00 | 70 | 1018.9 |
| 20260507194201 | 61 | 43 | 7.0 | 13.0 | 0.00 | 0.00 | 0.00 | 72 | 1019.0 |
| 20260507193949 | 60 | 43 | 9.0 | 13.0 | 0.00 | 0.00 | 0.00 | 71 | 1019.1 |
| 20260507193654 | 60 | 280 | 6.0 | 13.0 | 0.00 | 0.00 | 0.00 | 69 | 1018.8 |
| 20260507193432 | 61 | 280 | 10.0 | 13.0 | 0.00 | 0.00 | 0.00 | 69 | 1018.9 |
| 20260507193147 | 61 | 345 | 10.0 | 11.0 | 0.00 | 0.00 | 0.00 | 69 | 1018.9 |
| 20260507192914 | 61 | 33 | 7.0 | 9.0 | 0.00 | 0.00 | 0.00 | 70 | 1019.0 |
| 20260507192640 | 61 | 309 | 10.0 | 13.0 | 0.00 | 0.00 | 0.00 | 70 | 1019.0 |
| 20260507192357 | 61 | 337 | 4.0 | 13.0 | 0.00 | 0.00 | 0.00 | 71 | 1019.0 |
| 20260507192133 | 60 | 74 | 7.0 | 13.0 | 0.00 | 0.00 | 0.00 | 72 | 1019.0 |
| 20260507191841 | 60 | 324 | 8.0 | 13.0 | 0.00 | 0.00 | 0.00 | 72 | 1019.1 |
| 20260507191626 | 60 | 264 | 5.0 | 13.0 | 0.00 | 0.00 | 0.00 | 72 | 1019.1 |
| 20260507191323 | 59 | 47 | 2.0 | 13.0 | 0.00 | 0.00 | 0.00 | 71 | 1019.2 |
| 20260507191121 | 59 | 296 | 9.0 | 13.0 | 0.00 | 0.00 | 0.00 | 71 | 1019.1 |
| 20260507190806 | 59 | 320 | 10.0 | 13.0 | 0.00 | 0.00 | 0.00 | 71 | 1019.2 |
| 20260507190249 | 60 | 336 | 8.0 | 12.0 | 0.00 | 0.00 | 0.00 | 72 | 1019.1 |
| 20260507190105 | 60 | 305 | 8.0 | 12.0 | 0.00 | 0.00 | 0.00 | 72 | 1019.1 |
| 20260507185733 | 60 | 313 | 8.0 | 12.0 | 0.00 | 0.00 | 0.00 | 72 | 1019.2 |
| 20260507185558 | 59 | 333 | 7.0 | 12.0 | 0.00 | 0.00 | 0.00 | 72 | 1019.2 |
| 20260507185215 | 59 | 301 | 9.0 | 12.0 | 0.00 | 0.00 | 0.00 | 72 | 1019.2 |
| 20260507185051 | 60 | 301 | 11.0 | 12.0 | 0.00 | 0.00 | 0.00 | 72 | 1019.3 |
| 20260507184544 | 60 | 316 | 6.0 | 11.0 | 0.00 | 0.00 | 0.00 | 71 | 1019.3 |
| 20260507184141 | 60 | 4 | 7.0 | 11.0 | 0.00 | 0.00 | 0.00 | 72 | 1019.3 |
| 20260507184037 | 60 | 4 | 7.0 | 11.0 | 0.00 | 0.00 | 0.00 | 73 | 1019.3 |
| 20260507183625 | 59 | 310 | 8.0 | 11.0 | 0.00 | 0.00 | 0.00 | 72 | 1019.2 |
| 20260507183530 | 59 | 302 | 7.0 | 11.0 | 0.00 | 0.00 | 0.00 | 72 | 1019.1 |
| 20260507183107 | 59 | 330 | 8.0 | 11.0 | 0.00 | 0.00 | 0.00 | 73 | 1019.2 |
| 20260507183023 | 59 | 294 | 6.0 | 11.0 | 0.00 | 0.00 | 0.00 | 73 | 1019.2 |
| 20260507182550 | 59 | 299 | 7.0 | 11.0 | 0.00 | 0.00 | 0.00 | 73 | 1019.3 |
| 20260507182516 | 59 | 299 | 7.0 | 11.0 | 0.00 | 0.00 | 0.00 | 72 | 1019.2 |
| 20260507182033 | 59 | 282 | 7.0 | 11.0 | 0.00 | 0.00 | 0.00 | 73 | 1019.3 |
| 20260507182009 | 59 | 282 | 7.0 | 11.0 | 0.00 | 0.00 | 0.00 | 73 | 1019.4 |
| 20260507181516 | 59 | 338 | 3.0 | 11.0 | 0.00 | 0.00 | 0.00 | 74 | 1019.4 |
| 20260507181502 | 59 | 338 | 3.0 | 11.0 | 0.00 | 0.00 | 0.00 | 74 | 1019.4 |
| 20260507181000 | 58 | 326 | 7.0 | 11.0 | 0.00 | 0.00 | 0.00 | 74 | 1019.5 |
| 20260507180954 | 58 | 326 | 9.0 | 11.0 | 0.00 | 0.00 | 0.00 | 74 | 1019.5 |
| 20260507180447 | 58 | 302 | 8.0 | 11.0 | 0.00 | 0.00 | 0.00 | 74 | 1019.4 |
| 20260507180443 | 58 | 302 | 9.0 | 11.0 | 0.00 | 0.00 | 0.00 | 74 | 1019.4 |
| 20260507175940 | 58 | 333 | 7.0 | 12.0 | 0.00 | 0.00 | 0.00 | 75 | 1019.5 |
| 20260507175925 | 58 | 333 | 9.0 | 12.0 | 0.00 | 0.00 | 0.00 | 75 | 1019.5 |
| 20260507175434 | 58 | 331 | 6.0 | 12.0 | 0.00 | 0.00 | 0.00 | 75 | 1019.4 |
| 20260507175408 | 58 | 331 | 9.0 | 12.0 | 0.00 | 0.00 | 0.00 | 76 | 1019.4 |
| 20260507174926 | 58 | 330 | 3.0 | 12.0 | 0.00 | 0.00 | 0.00 | 76 | 1019.4 |
| 20260507174851 | 58 | 330 | 3.0 | 12.0 | 0.00 | 0.00 | 0.00 | 76 | 1019.4 |
| 20260507174419 | 57 | 313 | 8.0 | 12.0 | 0.00 | 0.00 | 0.00 | 76 | 1019.5 |
| 20260507174334 | 57 | 313 | 8.0 | 12.0 | 0.00 | 0.00 | 0.00 | 77 | 1019.5 |
| 20260507173912 | 57 | 334 | 8.0 | 10.0 | 0.00 | 0.00 | 0.00 | 76 | 1019.5 |
| 20260507173818 | 57 | 322 | 5.0 | 10.0 | 0.00 | 0.00 | 0.00 | 76 | 1019.6 |
| 20260507173405 | 57 | 326 | 5.0 | 10.0 | 0.00 | 0.00 | 0.00 | 77 | 1019.5 |
| 20260507173300 | 57 | 0 | 2.0 | 10.0 | 0.00 | 0.00 | 0.00 | 77 | 1019.6 |
| 20260507172858 | 57 | 333 | 7.0 | 9.0 | 0.00 | 0.00 | 0.00 | 77 | 1019.6 |
| 20260507172743 | 57 | 266 | 4.0 | 9.0 | 0.00 | 0.00 | 0.00 | 78 | 1019.6 |
| 20260507172351 | 57 | 1 | 5.0 | 9.0 | 0.00 | 0.00 | 0.00 | 79 | 1019.7 |
| 20260507172226 | 57 | 357 | 6.0 | 9.0 | 0.00 | 0.00 | 0.00 | 79 | 1019.7 |
| 20260507171845 | 56 | 357 | 4.0 | 9.0 | 0.00 | 0.00 | 0.00 | 80 | 1019.7 |
| 20260507171710 | 56 | 329 | 5.0 | 8.0 | 0.00 | 0.00 | 0.00 | 80 | 1019.8 |
| 20260507171337 | 56 | 329 | 3.0 | 4.0 | 0.00 | 0.00 | 0.00 | 79 | 1019.8 |
| 20260507171155 | 56 | 338 | 7.0 | 11.0 | 0.00 | 0.00 | 0.00 | 80 | 1019.8 |
| 20260507170830 | 56 | 315 | 3.0 | 11.0 | 0.00 | 0.00 | 0.00 | 80 | 1019.8 |
| 20260507170635 | 56 | 324 | 6.0 | 11.0 | 0.00 | 0.00 | 0.00 | 80 | 1019.8 |
| 20260507170324 | 56 | 324 | 7.0 | 11.0 | 0.00 | 0.00 | 0.00 | 80 | 1019.8 |
| 20260507170119 | 56 | 295 | 7.0 | 11.0 | 0.00 | 0.00 | 0.00 | 80 | 1019.8 |
| 20260507165816 | 56 | 295 | 8.0 | 11.0 | 0.00 | 0.00 | 0.00 | 80 | 1019.7 |
| 20260507165601 | 56 | 302 | 8.0 | 11.0 | 0.00 | 0.00 | 0.00 | 80 | 1019.7 |
| 20260507165309 | 56 | 324 | 5.0 | 10.0 | 0.00 | 0.00 | 0.00 | 80 | 1019.8 |
| 20260507165045 | 56 | 327 | 9.0 | 10.0 | 0.00 | 0.00 | 0.00 | 80 | 1019.7 |
| 20260507164802 | 56 | 0 | 0.0 | 9.0 | 0.00 | 0.00 | 0.00 | 81 | 1019.8 |
| 20260507164527 | 56 | 9 | 4.0 | 9.0 | 0.00 | 0.00 | 0.00 | 81 | 1019.8 |
| 20260507164255 | 56 | 0 | 0.0 | 9.0 | 0.00 | 0.00 | 0.00 | 81 | 1019.8 |
| 20260507164010 | 56 | 322 | 5.0 | 9.0 | 0.00 | 0.00 | 0.00 | 81 | 1019.8 |
| 20260507163748 | 56 | 336 | 7.0 | 9.0 | 0.00 | 0.00 | 0.00 | 81 | 1019.8 |
| 20260507163241 | 56 | 337 | 7.0 | 9.0 | 0.00 | 0.00 | 0.00 | 82 | 1019.9 |
| 20260507162936 | 56 | 337 | 5.0 | 9.0 | 0.00 | 0.00 | 0.00 | 82 | 1019.9 |
| 20260507162734 | 56 | 322 | 8.0 | 9.0 | 0.00 | 0.00 | 0.00 | 82 | 1019.9 |
| 20260507162419 | 56 | 324 | 3.0 | 8.0 | 0.00 | 0.00 | 0.00 | 83 | 1019.9 |
| 20260507162227 | 55 | 329 | 7.0 | 8.0 | 0.00 | 0.00 | 0.00 | 83 | 1019.9 |
| 20260507161902 | 55 | 329 | 6.0 | 8.0 | 0.00 | 0.00 | 0.00 | 84 | 1019.9 |
| 20260507161720 | 55 | 357 | 4.0 | 8.0 | 0.00 | 0.00 | 0.00 | 84 | 1019.9 |
| 20260507161345 | 55 | 322 | 5.0 | 8.0 | 0.00 | 0.00 | 0.00 | 83 | 1019.9 |
| 20260507161214 | 55 | 287 | 4.0 | 8.0 | 0.00 | 0.00 | 0.00 | 84 | 1019.9 |
| 20260507160829 | 55 | 341 | 4.0 | 9.0 | 0.00 | 0.00 | 0.00 | 84 | 1019.9 |
| 20260507160706 | 54 | 326 | 3.0 | 9.0 | 0.00 | 0.00 | 0.00 | 84 | 1019.9 |
| 20260507160312 | 54 | 7 | 5.0 | 9.0 | 0.00 | 0.00 | 0.00 | 84 | 1019.8 |
| 20260507160200 | 54 | 316 | 5.0 | 9.0 | 0.00 | 0.00 | 0.00 | 84 | 1019.9 |
| 20260507155754 | 54 | 310 | 3.0 | 9.0 | 0.00 | 0.00 | 0.00 | 84 | 1019.9 |
| 20260507155654 | 54 | 310 | 5.0 | 9.0 | 0.00 | 0.00 | 0.00 | 85 | 1019.9 |
| 20260507155237 | 54 | 36 | 7.0 | 9.0 | 0.00 | 0.00 | 0.00 | 85 | 1019.8 |
| 20260507155145 | 54 | 28 | 6.0 | 7.0 | 0.00 | 0.00 | 0.00 | 85 | 1019.8 |
| 20260507154720 | 54 | 326 | 5.0 | 7.0 | 0.00 | 0.00 | 0.00 | 85 | 1019.9 |
| 20260507154638 | 54 | 326 | 3.0 | 7.0 | 0.00 | 0.00 | 0.00 | 85 | 1019.9 |
| 20260507154203 | 54 | 305 | 3.0 | 7.0 | 0.00 | 0.00 | 0.00 | 86 | 1019.8 |
| 20260507154131 | 54 | 305 | 3.0 | 7.0 | 0.00 | 0.00 | 0.00 | 86 | 1019.8 |
| 20260507153625 | 54 | 299 | 3.0 | 7.0 | 0.00 | 0.00 | 0.00 | 86 | 1019.8 |
| 20260507153130 | 53 | 303 | 2.0 | 4.0 | 0.00 | 0.00 | 0.00 | 87 | 1019.9 |
| 20260507152610 | 53 | 308 | 3.0 | 7.0 | 0.00 | 0.00 | 0.00 | 87 | 1019.9 |
| 20260507152056 | 53 | 302 | 2.0 | 7.0 | 0.00 | 0.00 | 0.00 | 87 | 1019.9 |
| 20260507151556 | 53 | 340 | 2.0 | 7.0 | 0.00 | 0.00 | 0.00 | 87 | 1019.9 |
| 20260507151538 | 53 | 340 | 4.0 | 7.0 | 0.00 | 0.00 | 0.00 | 87 | 1019.9 |
| 20260507151050 | 53 | 0 | 0.0 | 4.0 | 0.00 | 0.00 | 0.00 | 87 | 1019.9 |
| 20260507151021 | 53 | 0 | 0.0 | 4.0 | 0.00 | 0.00 | 0.00 | 87 | 1019.9 |
| 20260507150542 | 53 | 0 | 0.0 | 4.0 | 0.00 | 0.00 | 0.00 | 88 | 1020.0 |
| 20260507150504 | 53 | 0 | 0.0 | 4.0 | 0.00 | 0.00 | 0.00 | 88 | 1019.9 |
| 20260507150036 | 53 | 0 | 0.0 | 4.0 | 0.00 | 0.00 | 0.00 | 88 | 1019.9 |
| 20260507145947 | 53 | 0 | 0.0 | 4.0 | 0.00 | 0.00 | 0.00 | 88 | 1019.9 |
| 20260507145528 | 53 | 322 | 1.0 | 4.0 | 0.00 | 0.00 | 0.00 | 88 | 1019.9 |
| 20260507145430 | 53 | 322 | 1.0 | 4.0 | 0.00 | 0.00 | 0.00 | 88 | 1019.8 |
| 20260507145021 | 53 | 357 | 1.0 | 3.0 | 0.00 | 0.00 | 0.00 | 88 | 1019.9 |
| 20260507144913 | 53 | 357 | 1.0 | 3.0 | 0.00 | 0.00 | 0.00 | 88 | 1019.9 |
| 20260507144516 | 53 | 0 | 0.0 | 0.0 | 0.00 | 0.00 | 0.00 | 89 | 1019.8 |
| 20260507144356 | 53 | 0 | 0.0 | 0.0 | 0.00 | 0.00 | 0.00 | 89 | 1019.9 |
| 20260507143839 | 53 | 0 | 0.0 | 0.0 | 0.00 | 0.00 | 0.00 | 89 | 1019.9 |
| 20260507143500 | 53 | 0 | 0.0 | 0.0 | 0.00 | 0.00 | 0.00 | 89 | 1019.9 |
| 20260507143322 | 53 | 0 | 0.0 | 0.0 | 0.00 | 0.00 | 0.00 | 89 | 1019.9 |
| 20260507142953 | 52 | 0 | 0.0 | 0.0 | 0.00 | 0.00 | 0.00 | 89 | 1019.9 |
| 20260507142805 | 52 | 0 | 0.0 | 0.0 | 0.00 | 0.00 | 0.00 | 90 | 1019.8 |
| 20260507142446 | 52 | 0 | 0.0 | 0.0 | 0.00 | 0.00 | 0.00 | 90 | 1019.8 |
| 20260507142249 | 52 | 0 | 0.0 | 0.0 | 0.00 | 0.00 | 0.00 | 90 | 1019.8 |
| 20260507141939 | 52 | 0 | 0.0 | 0.0 | 0.00 | 0.00 | 0.00 | 90 | 1019.8 |
| 20260507141732 | 52 | 0 | 0.0 | 0.0 | 0.00 | 0.00 | 0.00 | 90 | 1019.8 |
| 20260507141432 | 52 | 0 | 0.0 | 0.0 | 0.00 | 0.00 | 0.00 | 90 | 1019.8 |
| 20260507141214 | 52 | 0 | 0.0 | 0.0 | 0.00 | 0.00 | 0.00 | 90 | 1019.8 |
| 20260507140925 | 52 | 0 | 0.0 | 0.0 | 0.00 | 0.00 | 0.00 | 90 | 1019.9 |
| 20260507140657 | 52 | 0 | 0.0 | 0.0 | 0.00 | 0.00 | 0.00 | 90 | 1019.8 |
| 20260507140418 | 52 | 0 | 0.0 | 0.0 | 0.00 | 0.00 | 0.00 | 90 | 1019.8 |
| 20260507140140 | 52 | 0 | 0.0 | 0.0 | 0.00 | 0.00 | 0.00 | 91 | 1019.8 |
| 20260507135911 | 52 | 0 | 0.0 | 0.0 | 0.00 | 0.00 | 0.00 | 91 | 1019.8 |
| 20260507135624 | 52 | 0 | 0.0 | 0.0 | 0.00 | 0.00 | 0.00 | 91 | 1019.7 |
| 20260507135404 | 52 | 0 | 0.0 | 0.0 | 0.00 | 0.00 | 0.00 | 91 | 1019.7 |
| 20260507135106 | 52 | 0 | 0.0 | 0.0 | 0.00 | 0.00 | 0.00 | 91 | 1019.7 |
| 20260507134857 | 52 | 0 | 0.0 | 0.0 | 0.00 | 0.00 | 0.00 | 91 | 1019.6 |
| 20260507134550 | 52 | 0 | 0.0 | 0.0 | 0.00 | 0.00 | 0.00 | 91 | 1019.6 |
| 20260507134350 | 52 | 0 | 0.0 | 0.0 | 0.00 | 0.00 | 0.00 | 91 | 1019.6 |
| 20260507134032 | 52 | 0 | 0.0 | 0.0 | 0.00 | 0.00 | 0.00 | 91 | 1019.6 |
| 20260507133843 | 52 | 0 | 0.0 | 0.0 | 0.00 | 0.00 | 0.00 | 91 | 1019.6 |
| 20260507133515 | 52 | 0 | 0.0 | 0.0 | 0.00 | 0.00 | 0.00 | 91 | 1019.6 |
| 20260507133336 | 52 | 0 | 0.0 | 0.0 | 0.00 | 0.00 | 0.00 | 91 | 1019.6 |
| 20260507132958 | 52 | 0 | 0.0 | 0.0 | 0.00 | 0.00 | 0.00 | 91 | 1019.6 |
| 20260507132829 | 52 | 0 | 0.0 | 0.0 | 0.00 | 0.00 | 0.00 | 92 | 1019.6 |
| 20260507132441 | 52 | 0 | 0.0 | 0.0 | 0.00 | 0.00 | 0.00 | 92 | 1019.6 |
| 20260507132322 | 52 | 0 | 0.0 | 0.0 | 0.00 | 0.00 | 0.00 | 92 | 1019.7 |
| 20260507131924 | 52 | 0 | 0.0 | 0.0 | 0.00 | 0.00 | 0.00 | 92 | 1019.6 |
| 20260507131815 | 52 | 0 | 0.0 | 0.0 | 0.00 | 0.00 | 0.00 | 92 | 1019.6 |
| 20260507131407 | 52 | 0 | 0.0 | 0.0 | 0.00 | 0.00 | 0.00 | 92 | 1019.6 |
| 20260507131308 | 52 | 0 | 0.0 | 0.0 | 0.00 | 0.00 | 0.00 | 92 | 1019.6 |
| 20260507130850 | 52 | 0 | 0.0 | 0.0 | 0.00 | 0.00 | 0.00 | 92 | 1019.5 |
| 20260507130801 | 52 | 0 | 0.0 | 0.0 | 0.00 | 0.00 | 0.00 | 92 | 1019.6 |
| 20260507130333 | 52 | 0 | 0.0 | 0.0 | 0.00 | 0.00 | 0.00 | 92 | 1019.5 |
| 20260507130254 | 52 | 0 | 0.0 | 0.0 | 0.00 | 0.00 | 0.00 | 92 | 1019.5 |
| 20260507125816 | 52 | 0 | 0.0 | 0.0 | 0.00 | 0.00 | 0.00 | 92 | 1019.5 |
| 20260507125749 | 52 | 0 | 0.0 | 0.0 | 0.00 | 0.00 | 0.00 | 92 | 1019.5 |
| 20260507125259 | 52 | 0 | 0.0 | 0.0 | 0.00 | 0.00 | 0.00 | 92 | 1019.5 |
| 20260507125240 | 52 | 0 | 0.0 | 0.0 | 0.00 | 0.00 | 0.00 | 92 | 1019.5 |
| 20260507124733 | 52 | 0 | 0.0 | 0.0 | 0.00 | 0.00 | 0.00 | 92 | 1019.5 |
| 20260507124226 | 52 | 0 | 0.0 | 0.0 | 0.00 | 0.00 | 0.00 | 92 | 1019.5 |
| 20260507123719 | 52 | 0 | 0.0 | 0.0 | 0.00 | 0.00 | 0.00 | 92 | 1019.4 |
| 20260507123212 | 52 | 0 | 0.0 | 0.0 | 0.00 | 0.00 | 0.00 | 92 | 1019.5 |
| 20260507123151 | 52 | 0 | 0.0 | 0.0 | 0.00 | 0.00 | 0.00 | 92 | 1019.5 |
| 20260507122706 | 52 | 0 | 0.0 | 0.0 | 0.00 | 0.00 | 0.00 | 92 | 1019.5 |
| 20260507122634 | 52 | 0 | 0.0 | 0.0 | 0.00 | 0.00 | 0.00 | 92 | 1019.5 |
| 20260507122158 | 52 | 0 | 0.0 | 0.0 | 0.00 | 0.00 | 0.00 | 92 | 1019.6 |
| 20260507121651 | 52 | 0 | 0.0 | 0.0 | 0.00 | 0.00 | 0.00 | 92 | 1019.6 |
| 20260507121601 | 52 | 0 | 0.0 | 0.0 | 0.00 | 0.00 | 0.00 | 92 | 1019.6 |
| 20260507121145 | 52 | 0 | 0.0 | 0.0 | 0.00 | 0.00 | 0.00 | 92 | 1019.6 |
| 20260507121043 | 52 | 0 | 0.0 | 0.0 | 0.00 | 0.00 | 0.00 | 92 | 1019.6 |
| 20260507120637 | 52 | 0 | 0.0 | 0.0 | 0.00 | 0.00 | 0.00 | 92 | 1019.6 |
| 20260507120526 | 52 | 0 | 0.0 | 0.0 | 0.00 | 0.00 | 0.00 | 92 | 1019.6 |
| 20260507120130 | 52 | 0 | 0.0 | 0.0 | 0.00 | 0.00 | 0.00 | 92 | 1019.7 |
| 20260507120009 | 52 | 0 | 0.0 | 0.0 | 0.00 | 0.00 | 0.00 | 91 | 1019.7 |
| 20260507115623 | 52 | 0 | 0.0 | 0.0 | 0.00 | 0.00 | 0.00 | 91 | 1019.7 |
| 20260507115452 | 52 | 0 | 0.0 | 0.0 | 0.00 | 0.00 | 0.00 | 91 | 1019.7 |
| 20260507115116 | 52 | 0 | 0.0 | 0.0 | 0.00 | 0.00 | 0.00 | 92 | 1019.7 |
| 20260507114935 | 52 | 0 | 0.0 | 0.0 | 0.00 | 0.00 | 0.00 | 92 | 1019.7 |
| 20260507114609 | 52 | 0 | 0.0 | 0.0 | 0.00 | 0.00 | 0.00 | 92 | 1019.7 |
| 20260507114418 | 52 | 0 | 0.0 | 0.0 | 0.00 | 0.00 | 0.00 | 92 | 1019.8 |
| 20260507114102 | 52 | 0 | 0.0 | 0.0 | 0.00 | 0.00 | 0.00 | 92 | 1019.8 |
| 20260507113901 | 52 | 0 | 0.0 | 0.0 | 0.00 | 0.00 | 0.00 | 92 | 1019.8 |
| 20260507113555 | 52 | 0 | 0.0 | 0.0 | 0.00 | 0.00 | 0.00 | 92 | 1019.8 |
| 20260507113345 | 52 | 0 | 0.0 | 0.0 | 0.00 | 0.00 | 0.00 | 92 | 1019.8 |
| 20260507113048 | 52 | 0 | 0.0 | 0.0 | 0.00 | 0.00 | 0.00 | 92 | 1019.8 |
| 20260507112827 | 52 | 0 | 0.0 | 0.0 | 0.00 | 0.00 | 0.00 | 92 | 1019.8 |
| 20260507112541 | 52 | 0 | 0.0 | 0.0 | 0.00 | 0.00 | 0.00 | 92 | 1019.8 |
| 20260507112310 | 52 | 0 | 0.0 | 0.0 | 0.00 | 0.00 | 0.00 | 92 | 1019.8 |
| 20260507112034 | 52 | 0 | 0.0 | 0.0 | 0.00 | 0.00 | 0.00 | 92 | 1019.7 |
| 20260507111753 | 52 | 0 | 0.0 | 0.0 | 0.00 | 0.00 | 0.00 | 92 | 1019.8 |
| 20260507111527 | 52 | 0 | 0.0 | 0.0 | 0.00 | 0.00 | 0.00 | 92 | 1019.8 |
| 20260507111236 | 52 | 0 | 0.0 | 0.0 | 0.00 | 0.00 | 0.00 | 92 | 1019.8 |
| 20260507111020 | 52 | 0 | 0.0 | 0.0 | 0.00 | 0.00 | 0.00 | 92 | 1019.8 |
| 20260507110719 | 52 | 0 | 0.0 | 0.0 | 0.00 | 0.00 | 0.00 | 92 | 1019.8 |
| 20260507110202 | 52 | 0 | 0.0 | 0.0 | 0.00 | 0.00 | 0.00 | 92 | 1019.9 |
| 20260507110006 | 52 | 0 | 0.0 | 0.0 | 0.00 | 0.00 | 0.00 | 92 | 1019.8 |
| 20260507105645 | 52 | 0 | 0.0 | 0.0 | 0.00 | 0.00 | 0.00 | 92 | 1019.8 |
| 20260507105500 | 52 | 0 | 0.0 | 0.0 | 0.00 | 0.00 | 0.00 | 92 | 1019.8 |
| 20260507105129 | 52 | 0 | 0.0 | 0.0 | 0.00 | 0.00 | 0.00 | 92 | 1019.8 |
| 20260507104952 | 52 | 0 | 0.0 | 0.0 | 0.00 | 0.00 | 0.00 | 92 | 1019.8 |
| 20260507104611 | 52 | 0 | 0.0 | 0.0 | 0.00 | 0.00 | 0.00 | 92 | 1019.9 |
| 20260507104445 | 52 | 0 | 0.0 | 0.0 | 0.00 | 0.00 | 0.00 | 92 | 1019.9 |
| 20260507104054 | 52 | 0 | 0.0 | 0.0 | 0.00 | 0.00 | 0.00 | 92 | 1019.9 |
| 20260507103537 | 52 | 0 | 0.0 | 0.0 | 0.00 | 0.00 | 0.00 | 92 | 1019.9 |
| 20260507103431 | 52 | 0 | 0.0 | 0.0 | 0.00 | 0.00 | 0.00 | 92 | 1019.9 |
| 20260507103020 | 52 | 0 | 0.0 | 0.0 | 0.00 | 0.00 | 0.00 | 92 | 1019.9 |
| 20260507102924 | 52 | 0 | 0.0 | 0.0 | 0.00 | 0.00 | 0.00 | 92 | 1019.9 |
| 20260507102505 | 52 | 0 | 0.0 | 0.0 | 0.00 | 0.00 | 0.00 | 92 | 1020.0 |
| 20260507101946 | 52 | 0 | 0.0 | 0.0 | 0.00 | 0.00 | 0.00 | 92 | 1020.0 |
| 20260507101910 | 52 | 0 | 0.0 | 0.0 | 0.00 | 0.00 | 0.00 | 92 | 1020.0 |
| 20260507101429 | 52 | 0 | 0.0 | 0.0 | 0.00 | 0.00 | 0.00 | 91 | 1020.0 |
| 20260507101403 | 52 | 0 | 0.0 | 0.0 | 0.00 | 0.00 | 0.00 | 92 | 1020.0 |
| 20260507100912 | 53 | 0 | 0.0 | 0.0 | 0.00 | 0.00 | 0.00 | 92 | 1020.0 |
| 20260507100856 | 52 | 0 | 0.0 | 0.0 | 0.00 | 0.00 | 0.00 | 92 | 1020.0 |
| 20260507100349 | 52 | 0 | 0.0 | 0.0 | 0.00 | 0.00 | 0.00 | 92 | 1020.1 |
| 20260507095838 | 53 | 0 | 0.0 | 0.0 | 0.00 | 0.00 | 0.00 | 92 | 1020.1 |
| 20260507095335 | 52 | 0 | 0.0 | 0.0 | 0.00 | 0.00 | 0.00 | 92 | 1020.1 |
| 20260507095321 | 52 | 0 | 0.0 | 0.0 | 0.00 | 0.00 | 0.00 | 92 | 1020.1 |
| 20260507094828 | 53 | 0 | 0.0 | 0.0 | 0.00 | 0.00 | 0.00 | 92 | 1020.1 |
| 20260507094804 | 53 | 0 | 0.0 | 0.0 | 0.00 | 0.00 | 0.00 | 92 | 1020.1 |
| 20260507094321 | 53 | 0 | 0.0 | 0.0 | 0.00 | 0.00 | 0.00 | 92 | 1020.1 |
| 20260507093814 | 53 | 0 | 0.0 | 0.0 | 0.00 | 0.00 | 0.00 | 92 | 1020.1 |
| 20260507093730 | 53 | 0 | 0.0 | 0.0 | 0.00 | 0.00 | 0.00 | 92 | 1020.1 |
| 20260507093307 | 53 | 0 | 0.0 | 0.0 | 0.00 | 0.00 | 0.00 | 92 | 1020.2 |
| 20260507093213 | 53 | 0 | 0.0 | 0.0 | 0.00 | 0.00 | 0.00 | 92 | 1020.2 |
| 20260507092800 | 53 | 0 | 0.0 | 3.0 | 0.00 | 0.00 | 0.00 | 92 | 1020.3 |
| 20260507092656 | 53 | 0 | 0.0 | 3.0 | 0.00 | 0.00 | 0.00 | 92 | 1020.3 |
| 20260507092253 | 53 | 0 | 0.0 | 3.0 | 0.00 | 0.00 | 0.00 | 92 | 1020.3 |
| 20260507092139 | 53 | 0 | 0.0 | 3.0 | 0.00 | 0.00 | 0.00 | 92 | 1020.3 |
| 20260507091746 | 53 | 0 | 0.0 | 3.0 | 0.00 | 0.00 | 0.00 | 92 | 1020.4 |
| 20260507091622 | 53 | 0 | 0.0 | 3.0 | 0.00 | 0.00 | 0.00 | 92 | 1020.4 |
| 20260507091239 | 53 | 40 | 1.0 | 3.0 | 0.00 | 0.00 | 0.00 | 92 | 1020.4 |
| 20260507091105 | 52 | 0 | 0.0 | 0.0 | 0.00 | 0.00 | 0.00 | 92 | 1020.4 |
| 20260507090732 | 52 | 0 | 0.0 | 10.0 | 0.00 | 0.00 | 0.00 | 92 | 1020.4 |
| 20260507090548 | 52 | 0 | 0.0 | 10.0 | 0.00 | 0.00 | 0.00 | 92 | 1020.4 |
| 20260507090225 | 52 | 30 | 4.0 | 10.0 | 0.00 | 0.00 | 0.00 | 92 | 1020.6 |
| 20260507090031 | 52 | 30 | 4.0 | 10.0 | 0.00 | 0.00 | 0.00 | 92 | 1020.6 |
| 20260507085718 | 52 | 15 | 4.0 | 10.0 | 0.00 | 0.00 | 0.00 | 92 | 1020.6 |
| 20260507085211 | 52 | 7 | 5.0 | 10.0 | 0.00 | 0.00 | 0.00 | 92 | 1020.6 |
| 20260507084957 | 52 | 7 | 4.0 | 6.0 | 0.00 | 0.00 | 0.00 | 92 | 1020.6 |
| 20260507084704 | 52 | 39 | 2.0 | 4.0 | 0.00 | 0.00 | 0.00 | 92 | 1020.6 |
| 20260507084441 | 52 | 39 | 2.0 | 8.0 | 0.00 | 0.00 | 0.00 | 92 | 1020.6 |
| 20260507084157 | 52 | 26 | 5.0 | 8.0 | 0.00 | 0.00 | 0.00 | 92 | 1020.7 |
| 20260507083923 | 53 | 298 | 1.0 | 8.0 | 0.00 | 0.00 | 0.00 | 92 | 1020.7 |
| 20260507083406 | 53 | 357 | 6.0 | 8.0 | 0.00 | 0.00 | 0.00 | 93 | 1020.6 |
| 20260507083143 | 53 | 320 | 3.0 | 8.0 | 0.00 | 0.00 | 0.00 | 93 | 1020.8 |
| 20260507082849 | 53 | 18 | 3.0 | 8.0 | 0.00 | 0.00 | 0.00 | 93 | 1020.7 |
| 20260507082636 | 53 | 0 | 0.0 | 7.0 | 0.00 | 0.00 | 0.00 | 93 | 1020.7 |
| 20260507082332 | 53 | 0 | 0.0 | 7.0 | 0.00 | 0.00 | 0.00 | 93 | 1020.7 |
| 20260507082129 | 53 | 0 | 0.0 | 7.0 | 0.00 | 0.00 | 0.00 | 93 | 1020.7 |
| 20260507081815 | 53 | 0 | 0.0 | 7.0 | 0.00 | 0.00 | 0.00 | 93 | 1020.7 |
| 20260507081622 | 53 | 0 | 0.0 | 7.0 | 0.00 | 0.00 | 0.00 | 93 | 1020.7 |
| 20260507081258 | 53 | 0 | 0.0 | 7.0 | 0.00 | 0.00 | 0.00 | 93 | 1020.7 |
| 20260507081115 | 53 | 15 | 3.0 | 7.0 | 0.00 | 0.00 | 0.00 | 93 | 1020.7 |
| 20260507080741 | 53 | 0 | 0.0 | 5.0 | 0.00 | 0.00 | 0.00 | 93 | 1020.6 |
| 20260507080608 | 53 | 0 | 0.0 | 5.0 | 0.00 | 0.00 | 0.00 | 93 | 1020.6 |
| 20260507080224 | 53 | 2 | 2.0 | 5.0 | 0.00 | 0.00 | 0.00 | 93 | 1020.6 |
| 20260507075707 | 53 | 0 | 0.0 | 7.0 | 0.00 | 0.00 | 0.00 | 93 | 1020.6 |
| 20260507075554 | 53 | 0 | 0.0 | 7.0 | 0.00 | 0.00 | 0.00 | 93 | 1020.6 |
| 20260507075048 | 53 | 0 | 0.0 | 7.0 | 0.00 | 0.00 | 0.00 | 93 | 1020.6 |
| 20260507074633 | 53 | 22 | 3.0 | 7.0 | 0.00 | 0.00 | 0.00 | 93 | 1020.6 |
| 20260507074540 | 53 | 22 | 3.0 | 7.0 | 0.00 | 0.00 | 0.00 | 93 | 1020.7 |
| 20260507074033 | 53 | 0 | 0.0 | 4.0 | 0.00 | 0.00 | 0.00 | 94 | 1020.6 |
| 20260507073559 | 53 | 4 | 2.0 | 4.0 | 0.00 | 0.00 | 0.00 | 94 | 1020.7 |
| 20260507073526 | 53 | 4 | 4.0 | 4.0 | 0.00 | 0.00 | 0.00 | 94 | 1020.7 |
| 20260507073042 | 53 | 0 | 0.0 | 0.0 | 0.00 | 0.00 | 0.00 | 94 | 1020.7 |
| 20260507073019 | 53 | 0 | 0.0 | 0.0 | 0.00 | 0.00 | 0.00 | 94 | 1020.7 |
| 20260507072525 | 53 | 0 | 0.0 | 0.0 | 0.00 | 0.00 | 0.00 | 94 | 1020.7 |
| 20260507072005 | 53 | 0 | 0.0 | 0.0 | 0.00 | 0.00 | 0.00 | 94 | 1020.7 |
| 20260507071458 | 53 | 0 | 0.0 | 0.0 | 0.00 | 0.00 | 0.00 | 94 | 1020.7 |
| 20260507071451 | 53 | 0 | 0.0 | 3.0 | 0.00 | 0.00 | 0.00 | 94 | 1020.7 |
| 20260507070951 | 53 | 0 | 0.0 | 3.0 | 0.00 | 0.00 | 0.00 | 94 | 1020.6 |
| 20260507070934 | 53 | 0 | 0.0 | 3.0 | 0.00 | 0.00 | 0.00 | 94 | 1020.6 |
| 20260507070445 | 53 | 0 | 0.0 | 3.0 | 0.00 | 0.00 | 0.00 | 95 | 1020.7 |
| 20260507070417 | 53 | 0 | 0.0 | 3.0 | 0.00 | 0.00 | 0.00 | 95 | 1020.7 |
| 20260507065937 | 53 | 0 | 0.0 | 3.0 | 0.00 | 0.00 | 0.00 | 95 | 1020.7 |
| 20260507065900 | 53 | 0 | 0.0 | 3.0 | 0.00 | 0.00 | 0.00 | 95 | 1020.7 |
| 20260507065430 | 53 | 0 | 0.0 | 0.0 | 0.00 | 0.00 | 0.00 | 95 | 1020.6 |
| 20260507064923 | 53 | 0 | 0.0 | 5.0 | 0.00 | 0.00 | 0.00 | 95 | 1020.8 |
| 20260507064826 | 53 | 0 | 0.0 | 5.0 | 0.00 | 0.00 | 0.00 | 95 | 1020.8 |
| 20260507064416 | 53 | 15 | 1.0 | 5.0 | 0.00 | 0.00 | 0.00 | 95 | 1020.8 |
| 20260507064309 | 53 | 0 | 0.0 | 5.0 | 0.00 | 0.00 | 0.00 | 95 | 1020.9 |
| 20260507063909 | 53 | 357 | 4.0 | 5.0 | 0.00 | 0.00 | 0.00 | 95 | 1020.8 |
| 20260507063753 | 53 | 0 | 0.0 | 5.0 | 0.00 | 0.00 | 0.00 | 96 | 1020.9 |
| 20260507063402 | 53 | 0 | 0.0 | 5.0 | 0.00 | 0.00 | 0.00 | 96 | 1020.9 |
| 20260507063234 | 53 | 63 | 2.0 | 5.0 | 0.00 | 0.00 | 0.00 | 96 | 1020.9 |
| 20260507062855 | 53 | 0 | 0.0 | 0.0 | 0.00 | 0.00 | 0.00 | 96 | 1020.9 |
| 20260507062718 | 53 | 0 | 0.0 | 0.0 | 0.00 | 0.00 | 0.00 | 96 | 1020.8 |
| 20260507062348 | 53 | 0 | 0.0 | 0.0 | 0.00 | 0.00 | 0.00 | 96 | 1020.9 |
| 20260507062200 | 53 | 0 | 0.0 | 0.0 | 0.00 | 0.00 | 0.00 | 96 | 1020.8 |
| 20260507061841 | 53 | 0 | 0.0 | 4.0 | 0.00 | 0.00 | 0.00 | 96 | 1020.9 |
| 20260507061643 | 53 | 0 | 0.0 | 4.0 | 0.00 | 0.00 | 0.00 | 96 | 1020.9 |
| 20260507061334 | 53 | 0 | 0.0 | 4.0 | 0.00 | 0.00 | 0.00 | 96 | 1020.9 |
| 20260507061127 | 53 | 338 | 1.0 | 4.0 | 0.00 | 0.00 | 0.00 | 96 | 1021.0 |
| 20260507060827 | 53 | 0 | 0.0 | 4.0 | 0.00 | 0.00 | 0.00 | 96 | 1020.9 |
| 20260507060609 | 53 | 0 | 0.0 | 4.0 | 0.00 | 0.00 | 0.00 | 96 | 1020.9 |
| 20260507060320 | 53 | 0 | 0.0 | 4.0 | 0.00 | 0.00 | 0.00 | 96 | 1020.9 |
| 20260507060052 | 53 | 0 | 0.0 | 0.0 | 0.00 | 0.00 | 0.00 | 96 | 1020.9 |
| 20260507055813 | 53 | 0 | 0.0 | 0.0 | 0.00 | 0.00 | 0.00 | 96 | 1020.9 |
| 20260507055535 | 53 | 0 | 0.0 | 0.0 | 0.00 | 0.00 | 0.00 | 97 | 1020.9 |
| 20260507055306 | 53 | 0 | 0.0 | 0.0 | 0.00 | 0.00 | 0.00 | 97 | 1020.9 |
| 20260507055020 | 53 | 0 | 0.0 | 0.0 | 0.00 | 0.00 | 0.00 | 97 | 1020.9 |
| 20260507054758 | 53 | 0 | 0.0 | 0.0 | 0.00 | 0.00 | 0.00 | 97 | 1020.9 |
| 20260507054252 | 53 | 0 | 0.0 | 0.0 | 0.00 | 0.00 | 0.00 | 97 | 1020.9 |
| 20260507053945 | 53 | 0 | 0.0 | 0.0 | 0.00 | 0.00 | 0.00 | 97 | 1021.0 |
| 20260507053745 | 53 | 0 | 0.0 | 0.0 | 0.00 | 0.00 | 0.00 | 97 | 1021.0 |
| 20260507053427 | 53 | 0 | 0.0 | 6.0 | 0.00 | 0.00 | 0.00 | 97 | 1021.0 |
| 20260507053238 | 53 | 0 | 0.0 | 6.0 | 0.00 | 0.00 | 0.00 | 97 | 1021.0 |
| 20260507052910 | 53 | 0 | 0.0 | 6.0 | 0.00 | 0.00 | 0.00 | 97 | 1021.0 |
| 20260507052730 | 53 | 0 | 0.0 | 6.0 | 0.00 | 0.00 | 0.00 | 97 | 1021.0 |
| 20260507052353 | 53 | 0 | 0.0 | 6.0 | 0.00 | 0.00 | 0.00 | 97 | 1021.0 |
| 20260507052224 | 53 | 0 | 0.0 | 6.0 | 0.00 | 0.00 | 0.00 | 97 | 1021.0 |
| 20260507051836 | 53 | 0 | 0.0 | 6.0 | 0.00 | 0.00 | 0.00 | 97 | 1021.0 |
| 20260507051716 | 53 | 340 | 3.0 | 6.0 | 0.00 | 0.00 | 0.00 | 97 | 1021.0 |
| 20260507051319 | 53 | 0 | 0.0 | 0.0 | 0.00 | 0.00 | 0.00 | 97 | 1020.9 |
| 20260507051209 | 53 | 0 | 0.0 | 0.0 | 0.00 | 0.00 | 0.00 | 97 | 1021.0 |
| 20260507050804 | 53 | 0 | 0.0 | 0.0 | 0.00 | 0.00 | 0.00 | 97 | 1021.0 |
| 20260507050702 | 53 | 0 | 0.0 | 0.0 | 0.00 | 0.00 | 0.00 | 97 | 1021.0 |
| 20260507050245 | 53 | 0 | 0.0 | 10.0 | 0.00 | 0.00 | 0.00 | 97 | 1021.0 |
| 20260507050155 | 53 | 0 | 0.0 | 10.0 | 0.00 | 0.00 | 0.00 | 97 | 1021.0 |
| 20260507045729 | 53 | 0 | 0.0 | 10.0 | 0.00 | 0.00 | 0.00 | 97 | 1021.1 |
| 20260507045211 | 53 | 11 | 5.0 | 10.0 | 0.00 | 0.00 | 0.00 | 97 | 1021.0 |
| 20260507045141 | 53 | 11 | 5.0 | 10.0 | 0.00 | 0.00 | 0.00 | 97 | 1021.0 |
| 20260507044655 | 53 | 8 | 1.0 | 9.0 | 0.00 | 0.00 | 0.00 | 97 | 1021.2 |
| 20260507044634 | 53 | 8 | 1.0 | 9.0 | 0.00 | 0.00 | 0.00 | 97 | 1021.2 |
| 20260507044137 | 53 | 0 | 0.0 | 9.0 | 0.00 | 0.00 | 0.00 | 97 | 1021.1 |
| 20260507044128 | 53 | 0 | 0.0 | 9.0 | 0.00 | 0.00 | 0.00 | 97 | 1021.1 |
| 20260507043621 | 54 | 7 | 7.0 | 9.0 | 0.00 | 0.00 | 0.00 | 96 | 1021.1 |
| 20260507043113 | 54 | 0 | 0.0 | 0.0 | 0.00 | 0.00 | 0.00 | 96 | 1021.0 |
| 20260507043103 | 54 | 0 | 0.0 | 0.0 | 0.00 | 0.00 | 0.00 | 96 | 1021.0 |
| 20260507042606 | 54 | 0 | 0.0 | 0.0 | 0.00 | 0.00 | 0.00 | 96 | 1021.0 |
| 20260507042547 | 54 | 0 | 0.0 | 0.0 | 0.00 | 0.00 | 0.00 | 96 | 1021.0 |
| 20260507042059 | 54 | 0 | 0.0 | 0.0 | 0.00 | 0.00 | 0.00 | 95 | 1021.0 |
| 20260507041552 | 54 | 0 | 0.0 | 0.0 | 0.00 | 0.00 | 0.00 | 95 | 1020.9 |
| 20260507041045 | 54 | 0 | 0.0 | 0.0 | 0.00 | 0.00 | 0.00 | 95 | 1021.0 |
| 20260507040955 | 54 | 0 | 0.0 | 0.0 | 0.00 | 0.00 | 0.00 | 95 | 1021.0 |
| 20260507040538 | 54 | 0 | 0.0 | 0.0 | 0.00 | 0.00 | 0.00 | 95 | 1020.9 |
| 20260507040438 | 54 | 0 | 0.0 | 0.0 | 0.00 | 0.00 | 0.00 | 95 | 1021.0 |
| 20260507040032 | 54 | 0 | 0.0 | 0.0 | 0.00 | 0.00 | 0.00 | 95 | 1020.9 |
| 20260507035921 | 54 | 0 | 0.0 | 0.0 | 0.00 | 0.00 | 0.00 | 95 | 1021.0 |
| 20260507035404 | 54 | 0 | 0.0 | 0.0 | 0.00 | 0.00 | 0.00 | 95 | 1020.9 |
| 20260507035018 | 54 | 0 | 0.0 | 0.0 | 0.00 | 0.00 | 0.00 | 95 | 1020.9 |
| 20260507034847 | 54 | 0 | 0.0 | 0.0 | 0.00 | 0.00 | 0.00 | 95 | 1020.9 |
| 20260507034330 | 54 | 0 | 0.0 | 0.0 | 0.00 | 0.00 | 0.00 | 95 | 1020.9 |
| 20260507034003 | 54 | 0 | 0.0 | 0.0 | 0.00 | 0.00 | 0.00 | 95 | 1020.9 |
| 20260507033813 | 54 | 0 | 0.0 | 0.0 | 0.00 | 0.00 | 0.00 | 95 | 1020.8 |
| 20260507033456 | 54 | 0 | 0.0 | 0.0 | 0.00 | 0.00 | 0.00 | 95 | 1020.9 |
| 20260507033256 | 54 | 0 | 0.0 | 0.0 | 0.00 | 0.00 | 0.00 | 95 | 1020.8 |
| 20260507032949 | 54 | 0 | 0.0 | 0.0 | 0.00 | 0.00 | 0.00 | 95 | 1020.9 |
| 20260507032739 | 54 | 0 | 0.0 | 0.0 | 0.00 | 0.00 | 0.00 | 95 | 1020.8 |
| 20260507032442 | 54 | 0 | 0.0 | 0.0 | 0.00 | 0.00 | 0.00 | 95 | 1020.8 |
| 20260507032223 | 54 | 0 | 0.0 | 0.0 | 0.00 | 0.00 | 0.00 | 95 | 1020.9 |
| 20260507031935 | 54 | 0 | 0.0 | 0.0 | 0.00 | 0.00 | 0.00 | 95 | 1020.9 |
| 20260507031705 | 54 | 0 | 0.0 | 0.0 | 0.00 | 0.00 | 0.00 | 94 | 1020.8 |
| 20260507031428 | 54 | 0 | 0.0 | 0.0 | 0.00 | 0.00 | 0.00 | 94 | 1020.8 |
| 20260507031148 | 54 | 0 | 0.0 | 0.0 | 0.00 | 0.00 | 0.00 | 94 | 1020.8 |
| 20260507030921 | 54 | 0 | 0.0 | 0.0 | 0.00 | 0.00 | 0.00 | 94 | 1020.8 |
| 20260507030631 | 54 | 0 | 0.0 | 0.0 | 0.00 | 0.00 | 0.00 | 94 | 1020.8 |
| 20260507030414 | 54 | 0 | 0.0 | 0.0 | 0.00 | 0.00 | 0.00 | 94 | 1020.8 |
| 20260507030114 | 54 | 0 | 0.0 | 0.0 | 0.00 | 0.00 | 0.00 | 94 | 1020.8 |